Regional Weather Roundup
Issued by NWS

Home | Current Version | Previous Version | Graphics & Text | Print | Product List | Glossary On
Versions: 1 2 3 4 5 6 7 8 9 10 11 12 13 14 15 16 17 18 19 20 21 22 23 24 25 26 27 28 29 30 31 32 33 34 35 36 37 38 39 40 41 42 43 44 45 46 47 48 49 50
871
ASUS44 KLIX 162010
RWRLA
LOUISIANA WEATHER ROUNDUP
NATIONAL WEATHER SERVICE NEW ORLEANS LA
300 PM CDT WED APR 16 2014

NOTE: "FAIR" INDICATES FEW OR NO CLOUDS BELOW 12,000 FEET WITH NO
      SIGNIFICANT WEATHER AND/OR OBSTRUCTIONS TO VISIBILITY.
      SKY/WX - SKY CONDITION AND SIGNIFICANT WEATHER.
      TMP - AIR TEMPERATURE.    DP   - DEWPOINT TEMPERATURE.
      RH  - RELATIVE HUMIDITY.  PRES - PRESSURE.
      HX  - HEAT INDEX.         WCI  - WIND CHILL INDEX.

*  THESE STATIONS ARE NOT NWS OR FAA STATIONS AND ARE NOT UNDER
   NWS QUALITY CONTROL.

LAZ040-048-061>063-065-066-069-162100-
SOUTHEAST LOUISIANA

CITY           SKY/WX    TMP DP  RH WIND       PRES   REMARKS
N.O. AUDUBON     N/A     64  41  43 MISG        N/A
N.O. INTL ARPT MOSUNNY   62  45  53 NE10      30.16F
N.O. LAKEFRONT SUNNY     60  39  45 NE8       30.18F
N.O. DOWNTOWN* FAIR      61  37  41 NE8       30.17F
SLIDELL        SUNNY     60  39  45 S8        30.16F
BATON ROUGE    SUNNY     65  35  33 VRB3      30.15F
BOOTHVILLE     MOSUNNY   60  45  57 NE8       30.17F
BELLE CHASSE   PTSUNNY   63  42  46 NE10G16   30.16F
BOGALUSA*        N/A     64  30  27 E5        30.17F
GALLIANO*      PTCLDY    64  45  50 E8        30.15F
NEW ROADS*     FAIR      62  39  43 E7        30.15F
GONZALES*      FAIR      64  43  45 E5        30.14F
HAMMOND*       SUNNY     64  30  27 SW5       30.17F
HOUMA*         MOSUNNY   64  43  45 NE9       30.15F
PORT FOURCHON* MOCLDY    61  45  55 E9        30.16F

$$

LAZ041-044-053-054-162100-
SOUTHWEST LOUISIANA

CITY           SKY/WX    TMP DP  RH WIND       PRES   REMARKS
LAKE CHARLES   MOSUNNY   62  42  47 SE6       30.13F
LAFAYETTE      MOSUNNY   64  45  49 SE6       30.15F
PATTERSON      MOSUNNY   64  43  45 E5        30.17
SALT POINT       N/A     65  47  52 VRB6      30.13F
NEW IBERIA     MOSUNNY   67  46  47 S9        30.15F
CHENAULT AIRPK MOSUNNY   63  37  39 E8        30.15F

$$

LAZ027-028-162100-
CENTRAL LOUISIANA

CITY           SKY/WX    TMP DP  RH WIND       PRES   REMARKS
FORT POLK      MOSUNNY   62  33  33 VRB6      30.12F
ALEXANDRIA INT MOSUNNY   63  39  41 SE8       30.13F
ALEXANDRIA     MOSUNNY   64  31  28 VRB7      30.14F

$$

LAZ001-002-162100-
NORTHWEST LOUISIANA

CITY           SKY/WX    TMP DP  RH WIND       PRES   REMARKS
SHREVEPORT     PTSUNNY   63  31  30 SE5       30.11F
BARKSDALE AFB  MOSUNNY   62  29  28 S10       30.12F
DTN SHREVEPORT MOSUNNY   61  34  36 SE10      30.12F

$$

LAZ014-016-162100-
NORTHEAST LOUISIANA

CITY           SKY/WX    TMP DP  RH WIND       PRES   REMARKS
MONROE         SUNNY     61  34  36 S9        30.16F
TALLULAH       SUNNY     59  32  36 VRB6      30.16F

$$




USA.gov is the U.S. government's official web portal to all federal, state and local government web resources and services.